Regional Weather Roundup
Issued by NWS

Home | Current Version | Previous Version | Text Only | Print | Product List | Glossary On
Versions: 1 2 3 4 5 6 7 8 9 10 11 12 13 14 15 16 17 18 19 20 21 22 23 24 25 26 27 28 29 30 31 32 33 34 35 36 37 38 39 40 41 42 43 44 45 46 47 48 49 50
203
ASUS46 KSTO 041115
RWRCA

NORTHERN AND CENTRAL CA REGIONAL WEATHER ROUNDUP
NATIONAL WEATHER SERVICE SACRAMENTO CA
300 AM PST SUN DEC 04 2016

NOTE: FAIR INDICATES FEW OR NO CLOUDS BELOW 12,000 FEET WITH NO
SIGNIFICANT WEATHER AND/OR OBSTRUCTIONS TO VISIBILITY.

CAZ001-003-041200-
NORTHWEST AREA

CITY           SKY/WX    TMP DP  RH WIND       PRES   REMARKS
CRESCENT CITY  CLOUDY    46  42  86 E7        30.28F
UKIAH          PTCLDY    41  39  93 CALM      30.19F
$$

CAZ006-505>513-041200-
BAY AREA

CITY           SKY/WX    TMP DP  RH WIND       PRES   REMARKS
SANTA ROSA     FOG       38  38 100 CALM      30.16F VSB 1/2
SAN RAFAEL     N/A       44  MM  MM MISG
NAPA           CLEAR     37  35  92 CALM      30.18S
CONCORD        CLEAR     41  35  79 CALM      30.18F
OAKLAND CITY   N/A       48  MM  MM MISG
OAKLAND        CLEAR     45  41  86 E3        30.18S
SAN FRAN CITY  N/A       50  MM  83 MISG
SAN FRAN ARPT  CLEAR     48  43  82 CALM      30.18S
LIVERMORE      CLEAR     39  35  86 CALM      30.18S
HAYWARD        CLEAR     45  36  70 NE3       30.18S
REDWOOD CITY   N/A       40  MM  91 MISG
MOFFETT ARPT   CLEAR     43  38  82 CALM      30.18F
SAN JOSE ARPT  CLEAR     44  39  82 CALM      30.18S
$$
CAZ034-037-514>518-041200-
CENTRAL COAST

CITY           SKY/WX    TMP DP  RH WIND       PRES   REMARKS
WATSONVILLE    PTCLDY    43  39  86 VRB5      30.18F
SALINAS        CLEAR     40  35  83 E7        30.17F
MONTEREY       CLEAR     43  38  82 CALM      30.16F
SAN LUIS OBISP CLEAR     47  35  63 E6        30.11S
SANTA MARIA    CLEAR     44  38  79 S3        30.11S
$$
CAZ015-016-041200-
NORTHERN SACRAMENTO VALLEY

CITY           SKY/WX    TMP DP  RH WIND       PRES   REMARKS
REDDING        PTCLDY    41  37  86 CALM      30.17R
RED BLUFF      CLEAR     39  37  92 CALM      30.19S
OROVILLE       PTCLDY    44  39  82 E7        30.20S
$$
CAZ016>018-041200-
SOUTHERN SACRAMENTO VALLEY

CITY           SKY/WX    TMP DP  RH WIND       PRES   REMARKS
AUBURN         CLEAR     43  39  87 E8        30.18F
BEALE AFB      MOCLDY    42  39  89 E7        30.17F
LINCOLN        FAIR      39  37  93 E5        30.18F
MARYSVILLE     PTCLDY    36  34  92 CALM      30.20F
SAC INTL ARPT  CLEAR     38  37  97 CALM      30.19F
MATHER AIRPORT NOT AVBL
DOWNTOWN SAC   N/A       42  MM  MM MISG
SAC EXEC ARPT  CLEAR     40  39  97 CALM      30.19F
VACAVILLE      CLEAR     36  35  96 CALM      30.20S
TRAVIS AFB     CLEAR     35  34  96 N5        30.17S WCI  31
$$
CAZ019>021-041200-
SAN JOAQUIN VALLEY

CITY           SKY/WX    TMP DP  RH WIND       PRES   REMARKS
STOCKTON       CLEAR     40  38  93 E6        30.19F FOG
MODESTO        PTCLDY    39  36  89 E6        30.19F FOG     WCI  35
MERCED         CLEAR     35  33  92 E3        30.20S FOG
LEMOORE        CLEAR     35  31  85 W7        30.21S WCI  29
FRESNO         CLEAR     38  34  85 CALM      30.20F FOG
HANFORD        CLEAR     34  34 100 CALM      30.21S FOG
PORTERVILLE    CLEAR     35  33  92 SE5       30.21S WCI  31
BAKERSFIELD    CLEAR     40  33  76 CALM      30.18F
$$
CAZ011-012-071-041200-
NORTHERN MOUNTAINS

CITY           SKY/WX    TMP DP  RH WIND       PRES   REMARKS
YREKA          PTCLDY    27  25  92 N5        30.26F WCI  22
MOUNT SHASTA   PTCLDY    33  28  81 CALM      30.20F
ALTURAS        PTCLDY    25  23  92 CALM      30.19F
$$
CAZ011-012-071-041200-
SIERRA NEVADA MTNS

CITY           SKY/WX    TMP DP  RH WIND       PRES   REMARKS
BLUE CANYON    CLEAR     50  14  23 N6        30.22F
TRUCKEE        CLEAR     19  18  93 CALM      30.25F
TAHOE VLY ARPT PTCLDY    24  19  81 CALM      30.24F
MAMMOTH LAKES  FAIR      22  15  75 CALM      30.26F
$$




USA.gov is the U.S. government's official web portal to all federal, state and local government web resources and services.